Location: Zagreb
(45.8000°N, 16.0000°E)
Time: 20:36:23
(UTC+01:00)

deb Explorer IX - Pass Details

Date: 06 October 2020
Orbit: 537 x 1106 km, 38.8° (Epoch: 30 October)

Event Time Altitude Azimuth Distance (km) Brightness Sun altitude
Rises 19:20:24 0° 267° (W) 3,180 ? -10.3°
Reaches altitude 10° 19:23:24 10° 253° (WSW) 2,147 ? -10.8°
Maximum altitude 19:27:13 23° 203° (SSW) 1,369 ? -11.5°
Drops below altitude 10° 19:30:40 10° 151° (SSE) 1,918 ? -12.1°
Enters shadow 19:31:32 - 144° (SE) 2,188 ? -12.2°
Sets 19:33:12 0° 136° (SE) 2,755 - -12.5°
